Racecast

Keene Smith Invitational 9/1

Rex Callicott Park · 2414m · Girls · Junior High · 2021-09-01 · TX

Course difficulty: +0.123

Race-day weather: 86°F · wind 11 mph · humidity 67%

View full meet →

Team scores

Place Team Points 12345 67
1 Hico (TX) 64 3 6 16 17 22 25 28
2 Godley (TX) 93 5 8 21 29 30 32 33
3 Glen Rose (TX) 97 7 9 13 27 41 50 55
4 Cleburne (Smith) (TX) 144 2 20 35 36 51 59 64
5 Nichols (TX) 169 10 15 34 43 66 82 99
6 Keene (TX) 171 1 14 26 63 65 74 92
7 Maypearl (TX) 197 12 37 38 48 61 62 86
8 Loflin (TX) 202 23 39 40 42 58 70 84
9 Hillsboro (TX) 209 18 31 46 53 60 72 76
10 Wheat (TX) 238 19 44 47 52 75 80 91
11 Mineral Wells (TX) 261 45 49 54 56 57 71 89
12 Grandview (TX) 307 4 11 88 98 103
13 Rio Vista (TX) 378 67 68 87 93 94 105
14 Alvarado (TX) 393 73 77 78 79 81 83 90
15 Life Oak Cliff (TX) 440 24 96 102 106 108 113
16 Ferris (TX) 474 69 95 100 101 104 109 110
17 Dallas A+ (TX) 517 85 97 107 111 112 114 115

As scored by the meet.

Results

Rating scale ?
Place Athlete Grade School Time Rating Points
1 Brynleigh McFarlin 8 Keene (TX) 1 10:50.5 PR 127.6 1
2 Cadence Conner - Cleburne (Smith) (TX) 1 10:59.7 PR 125.9 2
3 Abigail Buendia 7 Irma Marsh (TX) 1 11:14.2 PR 123.3
4 Annie Mullin 8 Hico (TX) 1 11:17.1 PR 122.8 3
5 Madi Doty 8 Grandview (CO) 1 11:19.5 PR 122.4 4
6 Stephanie Favela 8 Godley (TX) 1 11:39.8 PR 119.0 5
7 Miley Broumley 8 Hico (TX) 2 11:43 PR 118.5 6
8 Brynn Hasty 8 Glen Rose (TX) 1 11:45.6 PR 118.0 7
9 Sophia Hodges 8 Godley (TX) 2 11:49.1 PR 117.5 8
10 Charlie Overbo 7 Glen Rose (TX) 2 11:51.4 PR 117.1 9
11 Rhyan Dollar 8 Nichols (TX) 1 11:57.8 PR 116.1 10
12 Wren Smith 8 Grandview (CO) 2 12:05.6 PR 114.9 11
13 Sheridan Van Blarcom 8 Maypearl (TX) 1 12:11.9 PR 114.0 12
14 Olivia Evertson 7 Glen Rose (TX) 3 12:22.9 PR 112.3 13
15 Eliana Mosqueda 7 Keene (TX) 2 12:23.1 PR 112.3 14
16 Kynli Miller 8 Nichols (TX) 2 12:26.3 PR 111.8 15
17 Keelie Powell 7 Hico (TX) 3 12:34.8 PR 110.6 16
18 Rylie Garrett 8 Hico (TX) 4 12:37.6 PR 110.2 17
19 Arianna Maqueda - Hillsboro (TX) 1 12:42.6 PR 109.5 18
20 Jessilyn Wurster 7 Wheat (TX) 1 12:50.6 PR 108.4 19
21 Alexis Leyva 7 Cleburne (Smith) (TX) 2 12:51.6 PR 108.3 20
22 Jordyn Geesaman 8 Godley (TX) 3 12:59.4 PR 107.3 21
23 Cloee Barnes 8 Hico (TX) 5 13:01.1 PR 107.0 22
24 Thalia Lynch 8 Loflin (TX) 1 13:06.2 PR 106.4 23
25 Hailey Turner 8 Life Oak Cliff (TX) 1 13:07.6 PR 106.2 24
26 Keagan Smith 7 Hico (TX) 6 13:09 PR 106.0 25
27 Savana Smith - Keene (TX) 3 13:10.1 PR 105.9 26
28 Rebecca Evertson 7 Glen Rose (TX) 4 13:10.4 PR 105.8 27
29 Haylee Barnes 8 Hico (TX) 7 13:15 PR 105.2 28
30 Lila Heiner 8 Godley (TX) 4 13:18.3 PR 104.8 29
31 Emma Lindamood 7 Godley (TX) 5 13:19 PR 104.7 30
32 Kalyah Patterson 9 Hillsboro (TX) 2 13:20.3 PR 95.4 31
33 Madi West 8 Godley (TX) 6 13:21.1 PR 104.5 32
34 Abbi Lee 8 Godley (TX) 7 13:26.4 PR 103.8 33
35 Brooklyn Vallejo 8 Nichols (TX) 3 13:28.4 PR 103.6 34
36 Hayli Hernandez 7 Godley (TX) 8 13:29 PR 103.5
37 Arrisa Turner 8 Cleburne (Smith) (TX) 3 13:29.6 PR 103.4 35
38 Lyric Caldwell 8 Cleburne (Smith) (TX) 4 13:31.1 PR 103.2 36
39 Rylee Stapleton 7 Maypearl (TX) 2 13:31.7 PR 103.1 37
40 Kale Smith 7 Hico (TX) 8 13:33.5 PR 102.9
41 Kimberly Maldonado 7 Godley (TX) 9 13:35.2 PR 102.7
42 Jessica Stansell 8 Maypearl (TX) 3 13:43.2 PR 101.8 38
43 Karen Palacios 7 Loflin (TX) 2 13:48.2 PR 101.2 39
44 Lauren Ellis 7 Loflin (TX) 3 13:49.2 PR 101.1 40
45 Juana Balderas 8 Glen Rose (TX) 5 13:55 PR 100.4 41
46 Trinity Goodling 8 Loflin (TX) 4 13:55.8 PR 100.3 42
47 Lacy Leach 8 Palmer (CO) 1 13:58.2 PR 100.0
48 Keira Cumins 8 Nichols (TX) 4 14:00 PR 99.8 43
49 Nola Briscoe 8 Godley (TX) 10 14:01.5 PR 99.6
50 Jimena Minero 8 Godley (TX) 11 14:02.6 PR 99.5
51 Bailey Block 7 Godley (TX) 12 14:04.1 PR 99.3
52 Mariana Rodriguez 8 Irma Marsh (TX) 2 14:04.9 PR 99.2
53 Jocelyn Martinez 8 Hico (TX) 9 14:08.2 PR 98.8
54 Hailey Michael 7 Wheat (TX) 2 14:09.3 PR 98.7 44
55 Nayeli Cosme 8 Mineral Wells (TX) 1 14:10.1 PR 98.6 45
56 Fabiola Prieto 7 Hillsboro (TX) 3 14:12.6 PR 98.4 46
57 Autumn Casillas 8 Wheat (TX) 3 14:13.9 PR 98.2 47
58 Kelbee Gibson 7 Maypearl (TX) 4 14:16.4 PR 97.9 48
59 Citlali Lopez 8 Mineral Wells (TX) 2 14:18.1 PR 97.8 49
60 Averyn Surovik 8 Frost (MI) 1 14:18.9 PR 97.7
61 Brooklyn Hill 8 Whitney (CA) 1 14:19.3 PR 97.6
62 Erin Clary 8 Glen Rose (TX) 6 14:19.8 PR 97.6 50
63 Ja'niya Jackson - Cleburne (Smith) (TX) 5 14:25.3 PR 97.0 51
64 Leticia Reyes 7 Wheat (TX) 4 14:26.5 PR 96.8 52
65 Sami (Samantha) Finch 7 Hico (TX) 10 14:29.1 PR 96.6
66 Mackenzie Lee 8 Frost (MI) 2 14:44 PR 95.0
67 Claudia Carbajal 8 Hillsboro (TX) 4 14:46.7 PR 94.7 53
68 Allayne Phillbern 8 Mineral Wells (TX) 3 14:47.1 PR 94.7 54
69 Emily Enriquez - Godley (TX) 13 14:51.3 PR 94.2
70 Addison Treppa 7 Glen Rose (TX) 7 14:53.7 PR 94.0 55
71 Katie Ponce 7 Godley (TX) 14 14:57.1 PR 93.6
72 Kenadie Gonzales - Godley (TX) 15 14:57.6 PR 93.6
73 Lilly Moon 7 Mineral Wells (TX) 4 15:00.9 PR 93.3 56
74 Kenzie Riney 7 Godley (TX) 16 15:02.9 PR 93.1
75 Carmen Galofaro 8 Godley (TX) 17 15:04 PR 92.9
76 Rhylee Knudson 8 Mineral Wells (TX) 5 15:07.3 PR 92.6 57
77 Leah McLean 7 Hico (TX) 11 15:11 PR 92.3
78 Abigail Camp 8 Loflin (TX) 5 15:14.1 PR 91.9 58
79 Alaya Evans - Rio Vista (CA) 1 15:22.5 PR 91.1 59
80 Lexi Cary 7 Cleburne (Smith) (TX) 6 15:22.9 PR 91.1 60
81 Maria Reyes 8 Hillsboro (TX) 5 15:39.6 PR 89.5 61
82 Abigale Bunt 9 Glen Rose (TX) 8 15:40.8 SR 81.5
83 Emilia Franklin 8 Whitney (CA) 2 15:42.9 PR 89.2
84 Sariah Hill 7 Whitney (CA) 3 15:43.4 PR 89.2
85 Payton Robertson 7 Maypearl (TX) 5 15:44.9 PR 89.0 62
86 Avery Stinedurf 7 Maypearl (TX) 6 15:53.3 PR 88.3 63
87 EMMY Hensley 8 Keene (TX) 4 15:54 PR 88.2 64
88 Kaylee Rios 7 Cleburne (Smith) (TX) 7 15:54.6 PR 88.2 65
89 Christa DeBusk 7 Keene (TX) 5 15:55.2 PR 88.1 66
90 Kaitlyn VanRiper 8 Nichols (TX) 5 16:01 PR 87.6 67
91 Arajai Burks 7 Cleburne (Smith) (TX) 8 16:02.6 PR 87.5
92 Kieley Livingston 8 Rio Vista (CA) 2 16:03.1 PR 87.4 68
93 Karsyn Lewis 7 Rio Vista (CA) 3 16:05.3 PR 87.2 69
94 Brizeda Garcia 8 Ferris (WA) 1 16:07.4 PR 87.0 70
95 Morgan Bryant 7 Loflin (TX) 6 16:07.8 PR 87.0 71
96 Elayna Alton 8 Mineral Wells (TX) 6 16:13.5 PR 86.5 72
97 Zoe Zhannel 8 Palmer (CO) 2 16:15 PR 86.4
98 Ayva Stroklund 8 Hillsboro (TX) 6 16:19.1 PR 86.0 73
99 Nicole Lomax 8 Alvarado (TX) 1 16:22.5 PR 85.7 74
100 Jocelyn Chase 7 Keene (TX) 6 16:25.5 PR 85.5 75
101 Jaycee Jones 8 Wheat (TX) 5 16:25.9 PR 85.5 76
102 Marissa Garrett 9 Hillsboro (TX) 7 16:31.4 PR 77.5 77
103 Bailey-Rae Taylor - Alvarado (TX) 2 16:32.3 PR 84.9 78
104 Natalia Sanchez 8 Alvarado (TX) 3 16:34.4 PR 84.7 79
105 Amelia Simmons 7 Alvarado (TX) 4 16:34.7 PR 84.7 80
106 Alyiah Valdez 7 Wheat (TX) 6 16:35 PR 84.7 81
107 Cidney Nava 7 Alvarado (TX) 5 16:35.5 PR 84.7 82
108 Alyssa Gulley 8 Nichols (TX) 6 16:37.7 PR 84.5 83
109 Callie Sullivan 8 Alvarado (TX) 6 16:40.8 PR 84.2 84
110 Avery Farrell 7 Loflin (TX) 7 16:43.4 PR 84.0 85
111 Allison Flores 8 Godley (TX) 18 16:48.2 PR 83.6
112 Jacqueline Ledezma 9 Dallas A+ (TX) 1 16:55.7 PR 75.7 86
113 Brooklyn Royal - Godley (TX) 19 16:56.8 PR 82.9
114 Rayni Sims 7 Maypearl (TX) 7 17:02 PR 82.5 87
115 Joana Soffiatti 7 Rio Vista (CA) 4 17:04.2 PR 82.3 88
116 Zoe Holton 7 Grandview (CO) 3 17:06.8 PR 82.1 89
117 Emily Wymar 7 Mineral Wells (TX) 7 17:07.7 PR 82.1 90
118 Kayla Miranda 7 Alvarado (TX) 7 17:08.6 PR 82.0 91
119 Adriana Gutierrez 8 Hillsboro (TX) 8 17:11.1 PR 81.8
120 Trinitie Allen 8 Wheat (TX) 7 17:12.4 PR 81.7 92
121 Emory Hunt 7 Hico (TX) 12 17:15.6 PR 81.5
122 Kayleigh Harrison 9 Hillsboro (TX) 9 17:21.1 PR 73.9
123 Yaretsy Perez 8 Mineral Wells (TX) 8 17:23.3 PR 80.9
124 Kasandra Bolanos 8 Cleburne (Smith) (TX) 9 17:26.1 PR 80.7
125 Grace Braulin 7 Cleburne (Smith) (TX) 10 17:28.1 PR 80.5
126 Alex Rodriguez 7 Palmer (CO) 3 17:32.1 PR 80.2
127 Lailah Pilgrim 7 Keene (TX) 7 17:36.8 PR 79.9 93
128 Brynley Erickson - Hico (TX) 13 17:45.4 PR 79.2
129 Hallie Turnbull 8 Wheat (TX) 8 17:46.7 PR 79.2
130 Kelsie Gilbert 7 Rio Vista (CA) 5 17:51.7 PR 78.8 94
131 Abbie (Abigale) Howard 8 Rio Vista (CA) 6 17:52.4 PR 78.7 95
132 Ameryss Campos 9 Hillsboro (TX) 10 17:56.5 PR 71.5
133 Madison Grant 8 Loflin (TX) 8 17:57.8 PR 78.4
134 Greenlee Stephens 7 Alvarado (TX) 8 17:59.7 PR 78.2
135 Addison Garey - Cleburne (Smith) (TX) 11 18:07.8 PR 77.7
136 Annabelle Groom - Cleburne (Smith) (TX) 12 18:12.9 PR 77.3
137 Dulce Vargas Cuevas 8 Hillsboro (TX) 11 18:13.8 PR 77.2
138 Deejanay Mendoza 7 Keene (TX) 8 18:32.7 PR 76.0
139 Jaylin Gent 8 Cleburne (Smith) (TX) 13 18:35.9 PR 75.7
140 Jocelyn Andrade 8 Ferris (WA) 2 18:37.2 PR 75.7 96
141 Kinsley Plough 8 Palmer (CO) 4 18:43.2 PR 75.3
142 Jaquelin Aguirre 8 Irma Marsh (TX) 3 18:45.3 PR 75.1
143 aniya Scott 8 Life Oak Cliff (TX) 2 18:50.2 PR 74.8 97
144 Cheyenne Chamberlain - Alvarado (TX) 9 18:54.2 PR 74.6
145 Ester Martinez 8 Dallas A+ (TX) 2 18:55.5 PR 74.5 98
146 Kasandra Deanda 8 Cleburne (Smith) (TX) 14 18:56.8 PR 74.4
147 Isabella Ortega - Godley (TX) 20 19:03.5 PR 74.0
148 Erica Jones 8 Grandview (CO) 4 19:03.9 PR 73.9 99
149 Valerie Botello - Godley (TX) 21 19:06 PR 73.8
150 Dajessi Gonzales 9 Hillsboro (TX) 12 19:07.6 PR 67.2
151 Betty Chin 8 Hillsboro (TX) 13 19:09.6 PR 73.6
152 Fernanda Martinez 7 Hillsboro (TX) 14 19:14.1 PR 73.3
153 Ruby Aguilar - Wheat (TX) 9 19:19.5 PR 73.0
154 Leslye Puga - Cleburne (Smith) (TX) 15 19:25.2 PR 72.6
155 Emma Putty 7 Wheat (TX) 10 19:28 PR 72.4
156 Loryn Mcbride 8 Nichols (TX) 7 19:29.4 PR 72.4 100
157 Zemirah Williams 8 Ferris (WA) 3 19:35.4 PR 72.0 101
158 Sienna Fowler 7 Hico (TX) 14 19:42.7 PR 71.6
159 Alexandra Torres 8 Ferris (WA) 4 19:50.2 PR 71.1 102
160 Riley Smith 7 Nichols (TX) 8 19:50.8 PR
161 Isabella Caselman 8 Wheat (TX) 11 19:52.2 PR 71.0
162 Diana Varela - Cleburne (Smith) (TX) 16 19:54.8 PR 70.9
163 Mihyla Todd 8 Cleburne (Smith) (TX) 17 19:57.4 PR 70.7
164 Khloe Fusilier 7 Wheat (TX) 12 19:58.1 PR 70.7
165 Christine Mills - Wheat (TX) 13 20:02.2 PR 70.4
166 Ariel Lara 8 Cleburne (Smith) (TX) 18 20:02.5 PR 70.4
167 Ilexis Flores 9 Hillsboro (TX) 15 20:12.4 PR 63.6
168 Isabel Guadamuz - Cleburne (Smith) (TX) 19 20:13.8 PR 69.8
169 Elizabeth Cook 7 Mineral Wells (TX) 9 20:15 PR 69.7
170 Leyah Cobos 8 Irma Marsh (TX) 4 20:18.2 PR 69.5
171 Caylee Ortiz 7 Wheat (TX) 14 20:19.4 PR 69.5
172 Aubrey Middleton 7 Itasca (TX) 1 20:20.8 PR 69.4
173 Reagan McClure 7 Cleburne (Smith) (TX) 20 20:25.1 PR 69.2
174 Jasmelin Sanchez 7 Cleburne (Smith) (TX) 21 20:25.6 PR 69.1
175 Addison Calvin 7 Frost (MI) 3 20:29.4 PR 68.9
176 McKayla Norris - Alvarado (TX) 10 20:35.3 PR 68.6
177 Carlie Vrana 8 Alvarado (TX) 11 20:54.7 PR 67.6
178 Amy Martinez 8 Life Oak Cliff (TX) 3 20:55.7 PR 67.5 103
179 Rholly Anderson 7 Grandview (CO) 5 20:58.6 PR 67.4 104
180 Micah Miller 7 Wheat (TX) 15 20:59.3 PR 67.3
181 McKayla Barnes 7 Wheat (TX) 16 21:09.5 PR 66.8
182 Heidi Evans 8 Glen Rose (TX) 9 21:09.8 PR 66.8
183 Maddie Oster 7 Alvarado (TX) 12 21:14.1 PR 66.6
184 Keiry Balleza 8 Ferris (WA) 5 21:23 PR 66.1 105
185 Laci Holland - Cleburne (Smith) (TX) 22 21:39 PR 65.3
186 Nora Collazo 7 Cleburne (Smith) (TX) 23 22:02.2 PR 64.2
187 Bailey Brock 7 Mineral Wells (TX) 10 22:06.4 PR 64.0
188 Avah Maarcozzo 7 Wheat (TX) 17 22:11.1 PR 63.8
189 Haylen Ortiz 7 Wheat (TX) 18 22:24.8 PR 63.1
190 Mariah Lawrence 7 Rio Vista (CA) 7 22:32.4 PR 62.8 106
191 Allison Bernal - Wheat (TX) 19 22:36.9 PR 62.6
192 Lesley Trejo 8 Life Oak Cliff (TX) 4 23:04.2 PR 61.4 107
193 Miranda Herrera 7 Dallas A+ (TX) 3 23:38.9 PR 59.9 108
194 Addyson Lacy 7 Wheat (TX) 20 23:49.5 PR 59.5
195 Chloe Coffenberry 8 Mineral Wells (TX) 11 23:50.9 PR 59.4
196 Lizbeth Estrada - Life Oak Cliff (TX) 5 24:02.7 PR 58.9 109
197 Danya Everett - Hillsboro (TX) 16 24:16.3 PR 58.4
198 Mia Parsons 7 Wheat (TX) 21 24:17.8 PR 58.3
199 Trinity Herder 7 Mineral Wells (TX) 12 24:46.3 PR 57.2
200 Alexa Tafolla 7 Mineral Wells (TX) 13 25:00.1 PR 56.7
201 Cailyn Thalken 7 Cleburne (Smith) (TX) 24 25:06.3 PR 56.5
202 Taylor Gerke 7 Mineral Wells (TX) 14 25:11.5 PR 56.3
203 Diana Hernandez 7 Ferris (WA) 6 26:47.7 PR 53.0 110
204 Gracelyn Daniel 7 Wheat (TX) 22 26:57 PR 52.7
205 Jasmine Gonzales 7 Ferris (WA) 7 26:58.6 PR 52.6 111
206 Isabella Rivas 7 Ferris (WA) 8 27:22.9 PR 51.9
207 Ruby Reyes - Dallas A+ (TX) 4 27:48.5 PR 41.3 112
208 Valerie Escobedo 8 Dallas A+ (TX) 5 28:13.9 PR 50.3 113
209 Aiyana Cortez 12 Life Oak Cliff (TX) 6 29:24.1 PR 43.0 114
210 Ashley Cavazos 8 Dallas A+ (TX) 6 29:37.6 PR 42.7 115
211 Yareli Bueno - Dallas A+ (TX) 7 29:47 PR 42.5 116
212 Amy Mercado 7 Dallas A+ (TX) 8 29:47.3 PR 42.5
213 Michelle Alvarez 8 Itasca (TX) 2 29:51.7 PR 42.3
Something wrong on this page? Report it →